Tracking 18843 objects as of 20-November-2017
HD Live streaming from Space Station
objects crossing your sky now

SL-16 DEB

Track SL-16 DEB now!
10-day predictions


NORAD ID: 22336
Int'l Code: 1992-093Z
Perigee: 839.2 km
Apogee: 1,013.6 km
Inclination: 71.1 °
Period: 103.4 minutes
Semi major axis: 7297 km
RCS: 0.2247 m2 (medium)
Launch date: December 25, 1992
Source: Commonwealth of Independent States (former USSR) (CIS)
Launch site: TYURATAM MISSILE AND SPACE COMPLEX (TTMTR)

Note: This is SATELLITE DEBRIS
aabbcc
Your satellite tracking list
Your tracking list is empty




NASA's NSSDC Master Catalog

Two Line Element Set (TLE):
1 22336U 92093Z   17323.57958170 +.00000034 +00000-0 +56870-4 0  9994
2 22336 071.1333 045.4484 0119534 355.8129 103.8657 13.92678580261267
Source of the keplerian elements: AFSPC